Glendale Luke AFB, AZ

2:20 AM MST on November 13, 2019 (GMT -0700)
Luke Air Force Base

Weather History for KLUF - September, 2019

Change the Weather History Date:

Tuesday, September 17, 2019

  Actual Average Record
Temperature  
Mean Temperature 84 °F -  
Max Temperature 95 °F 100 °F 112 °F (1962)
Min Temperature 74 °F 65 °F 55 °F (1970)
Cooling Degree Days 20    
Growing Degree Days 34 (Base 50)    
Moisture  
Dew Point 60 °F    
Average Humidity 44    
Maximum Humidity 66    
Minimum Humidity 28    
Precipitation  
Precipitation 0.00 in - - ()
Sea Level Pressure  
Sea Level Pressure 29.82 in    
Wind  
Wind Speed 2 mph (West)    
Max Wind Speed 7 mph    
Max Gust Speed -    
Visibility 10 miles    
Events Thunderstorm    
Averages and records for this station are not official NWS values.
T = Trace of Precipitation, MM = Missing Value Source: NWS Daily Summary

Daily Weather History Graph

Daily Weather History Graph

Search for Another Location

Airport or City:

Astronomy

Sep. 17, 2019 Rise Set
Actual Time 6:14 AM MST 6:33 PM MST
Civil Twilight 5:49 AM MST 6:58 PM MST
Nautical Twilight 5:20 AM MST 7:27 PM MST
Astronomical Twilight 4:50 AM MST 7:56 PM MST
Moon 8:47 PM MST (9/17) 9:14 AM MST (9/17)
Length of Visible Light 13h 08m
Length of Day
12h 19m
Waning Gibbous, 88% of the Moon is Illuminated
Sep 17
Waning Gibbous
Sep 21
Last Quarter
Sep 28
New
Oct 5
First Quarter
Oct 13
Full

Hourly Weather History & Observations

Time (MST) Temp. Heat Index Dew Point Humidity Pressure Visibility Wind Dir Wind Speed Gust Speed Precip Events Conditions
12:58 AM 76.6 °F - 62.1 °F 61% 29.83 in 10.0 mi Calm Calm - N/A   Clear
1:58 AM 75.0 °F - 62.4 °F 65% 29.84 in 10.0 mi Calm Calm - N/A Thunderstorm Clear
2:58 AM 75.4 °F - 62.2 °F 64% 29.85 in 10.0 mi NNW 4.6 mph - N/A   Clear
3:58 AM 75.6 °F - 61.2 °F 61% 29.84 in 10.0 mi NNW 4.6 mph - N/A   Clear
4:58 AM 75.2 °F - 62.1 °F 64% 29.84 in 10.0 mi Calm Calm - N/A   Clear
5:58 AM 75.2 °F - 61.2 °F 62% 29.86 in 10.0 mi Calm Calm - N/A   Mostly Cloudy
6:58 AM 74.1 °F - 62.1 °F 66% 29.88 in 10.0 mi NNW 3.5 mph - N/A   Clear
7:58 AM 78.6 °F - 61.0 °F 55% 29.90 in 10.0 mi Calm Calm - N/A   Clear
8:58 AM 81.9 °F 82.3 °F 60.3 °F 48% 29.91 in 10.0 mi NNE 3.5 mph - N/A   Partly Cloudy
9:58 AM 85.6 °F 85.4 °F 59.9 °F 42% 29.91 in 10.0 mi Calm Calm - N/A   Clear
10:58 AM 88.0 °F 87.6 °F 59.9 °F 39% 29.88 in 10.0 mi SSE 4.6 mph - N/A   Clear
11:58 AM 91.2 °F 90.8 °F 59.7 °F 35% 29.86 in 10.0 mi ESE 4.6 mph - N/A   Clear
12:58 PM 92.5 °F 91.9 °F 59.2 °F 33% 29.84 in 10.0 mi Calm Calm - N/A   Partly Cloudy
1:58 PM 94.1 °F 93.5 °F 58.8 °F 31% 29.82 in 10.0 mi Calm Calm - N/A   Partly Cloudy
2:58 PM 95.2 °F 93.9 °F 56.8 °F 28% 29.79 in 10.0 mi Calm Calm - N/A   Partly Cloudy
3:58 PM 95.4 °F 94.6 °F 57.9 °F 29% 29.77 in 10.0 mi West 4.6 mph - N/A   Partly Cloudy
4:58 PM 95.2 °F 94.3 °F 57.9 °F 29% 29.76 in 10.0 mi SSW 4.6 mph - N/A   Clear
5:58 PM 94.8 °F 93.4 °F 56.5 °F 28% 29.75 in 10.0 mi SSW 3.5 mph - N/A   Clear
6:58 PM 93.7 °F 92.3 °F 56.7 °F 29% 29.75 in 10.0 mi Calm Calm - N/A   Clear
7:58 PM 93.2 °F 91.9 °F 57.0 °F 30% 29.75 in 10.0 mi Calm Calm - N/A   Clear
8:58 PM 90.5 °F 89.5 °F 58.3 °F 34% 29.76 in 10.0 mi WSW 6.9 mph - N/A   Clear
9:58 PM 88.2 °F 87.6 °F 59.4 °F 38% 29.77 in 10.0 mi WSW 5.8 mph - N/A   Clear
10:58 PM 83.5 °F 83.4 °F 59.2 °F 44% 29.77 in 10.0 mi Calm Calm - N/A   Clear
11:58 PM 82.4 °F 82.5 °F 58.8 °F 45% 29.77 in 10.0 mi NNE 3.5 mph - N/A   Clear